IRIDIUM 95 [-]

Last updated on March 26, 2019, 3:11 a.m. UTC

1 27375U 02005D   19084.73540002  .20309122 -18465-5  18100-3 0  9996
2 27375  86.6002  15.7630 0050669 113.4157 247.2494 16.46327734903780

Satellite is not in orbit.